| time (UTC) | temp C | wind direction | speed KPH | gust KPH | rain 1hr cm | rain 24hr cm | rain mn cm | humidity % | barometer mb |
| 20260505091920 | 10 | 169 | 3.2 | 9.7 | 0.00 | 0.00 | 0.00 | 95 | 1010.3 |
| 20260505091417 | 10 | 171 | 6.4 | 11.3 | 0.00 | 0.00 | 0.00 | 95 | 1010.0 |
| 20260505090915 | 10 | 132 | 6.4 | 11.3 | 0.00 | 0.00 | 0.00 | 95 | 1010.2 |
| 20260505090413 | 10 | 157 | 4.8 | 9.7 | 0.00 | 0.00 | 0.00 | 95 | 1010.4 |
| 20260505085910 | 10 | 110 | 11.3 | 12.9 | 0.00 | 0.00 | 0.00 | 95 | 1010.4 |
| 20260505085408 | 10 | 135 | 4.8 | 9.7 | 0.00 | 0.00 | 0.00 | 95 | 1010.3 |
| 20260505084906 | 10 | 125 | 8.0 | 9.7 | 0.00 | 0.00 | 0.00 | 95 | 1010.4 |
| 20260505084404 | 10 | 113 | 11.3 | 11.3 | 0.00 | 0.00 | 0.00 | 94 | 1010.4 |
| 20260505083901 | 10 | 130 | 6.4 | 12.9 | 0.00 | 0.00 | 0.00 | 94 | 1010.3 |
| 20260505083359 | 10 | 136 | 4.8 | 12.9 | 0.00 | 0.00 | 0.00 | 94 | 1010.4 |
| 20260505082855 | 10 | 118 | 8.0 | 14.5 | 0.00 | 0.00 | 0.00 | 93 | 1010.2 |
| 20260505082351 | 10 | 134 | 6.4 | 9.7 | 0.00 | 0.00 | 0.00 | 93 | 1010.1 |
| 20260505081848 | 10 | 167 | 6.4 | 12.9 | 0.00 | 0.00 | 0.00 | 93 | 1010.3 |
| 20260505081345 | 10 | 141 | 3.2 | 12.9 | 0.00 | 0.00 | 0.00 | 93 | 1010.3 |
| 20260505080841 | 10 | 135 | 6.4 | 9.7 | 0.00 | 0.00 | 0.00 | 93 | 1010.2 |
| 20260505080337 | 10 | 125 | 6.4 | 12.9 | 0.00 | 0.00 | 0.00 | 93 | 1010.2 |
| 20260505075833 | 10 | 112 | 11.3 | 11.3 | 0.00 | 0.00 | 0.00 | 93 | 1010.3 |
| 20260505075330 | 10 | 244 | 3.2 | 8.0 | 0.00 | 0.00 | 0.00 | 93 | 1010.4 |
| 20260505074827 | 10 | 116 | 6.4 | 9.7 | 0.00 | 0.00 | 0.00 | 93 | 1010.5 |
| 20260505074324 | 10 | 111 | 9.7 | 9.7 | 0.00 | 0.00 | 0.00 | 92 | 1010.3 |
| 20260505073822 | 10 | 162 | 6.4 | 12.9 | 0.00 | 0.00 | 0.00 | 92 | 1010.4 |
| 20260505073320 | 10 | 110 | 9.7 | 9.7 | 0.00 | 0.00 | 0.00 | 92 | 1010.4 |
| 20260505072816 | 10 | 101 | 4.8 | 14.5 | 0.00 | 0.00 | 0.00 | 92 | 1010.5 |
| 20260505072312 | 10 | 131 | 3.2 | 9.7 | 0.00 | 0.00 | 0.00 | 92 | 1010.4 |
| 20260505071808 | 10 | 136 | 3.2 | 8.0 | 0.00 | 0.00 | 0.00 | 91 | 1010.3 |
| 20260505071305 | 10 | 116 | 6.4 | 11.3 | 0.00 | 0.00 | 0.00 | 91 | 1010.4 |
| 20260505070803 | 10 | 137 | 6.4 | 8.0 | 0.00 | 0.00 | 0.00 | 91 | 1010.4 |
| 20260505070259 | 10 | 117 | 4.8 | 8.0 | 0.00 | 0.00 | 0.00 | 90 | 1010.4 |
| 20260505065754 | 10 | 128 | 4.8 | 9.7 | 0.00 | 0.00 | 0.00 | 90 | 1010.6 |
| 20260505065252 | 10 | 171 | 4.8 | 12.9 | 0.00 | 0.00 | 0.00 | 90 | 1010.3 |
| 20260505064749 | 10 | 110 | 8.0 | 11.3 | 0.00 | 0.00 | 0.00 | 89 | 1010.5 |
| 20260505064246 | 10 | 137 | 6.4 | 12.9 | 0.00 | 0.00 | 0.00 | 89 | 1010.6 |
| 20260505063744 | 10 | 204 | 3.2 | 11.3 | 0.00 | 0.00 | 0.00 | 89 | 1010.6 |
| 20260505063240 | 10 | 101 | 4.8 | 9.7 | 0.00 | 0.00 | 0.00 | 88 | 1010.6 |
| 20260505062736 | 10 | 127 | 6.4 | 14.5 | 0.00 | 0.00 | 0.00 | 89 | 1010.5 |
| 20260505062234 | 10 | 108 | 3.2 | 11.3 | 0.00 | 0.00 | 0.00 | 88 | 1010.5 |
| 20260505061731 | 10 | 122 | 3.2 | 9.7 | 0.00 | 0.00 | 0.00 | 88 | 1010.6 |
| 20260505061229 | 10 | 111 | 3.2 | 11.3 | 0.00 | 0.00 | 0.00 | 87 | 1010.6 |
| 20260505060726 | 10 | 116 | 8.0 | 11.3 | 0.00 | 0.00 | 0.00 | 87 | 1010.7 |
| 20260505060223 | 10 | 82 | 4.8 | 6.4 | 0.00 | 0.00 | 0.00 | 87 | 1010.5 |
| 20260505055718 | 10 | 156 | 0.0 | 8.0 | 0.00 | 0.00 | 0.00 | 87 | 1010.3 |
| 20260505055215 | 10 | 143 | 6.4 | 8.0 | 0.00 | 0.00 | 0.00 | 87 | 1010.6 |
| 20260505054712 | 11 | 152 | 6.4 | 9.7 | 0.00 | 0.00 | 0.00 | 86 | 1010.5 |
| 20260505054210 | 10 | 162 | 8.0 | 17.7 | 0.00 | 0.00 | 0.00 | 86 | 1010.6 |
| 20260505053708 | 11 | 214 | 8.0 | 16.1 | 0.00 | 0.00 | 0.00 | 86 | 1010.6 |
| 20260505053204 | 11 | 283 | 6.4 | 14.5 | 0.00 | 0.00 | 0.00 | 86 | 1010.5 |
| 20260505052701 | 11 | 145 | 4.8 | 11.3 | 0.00 | 0.00 | 0.00 | 85 | 1010.4 |
| 20260505052158 | 11 | 199 | 6.4 | 12.9 | 0.00 | 0.00 | 0.00 | 85 | 1010.6 |
| 20260505051655 | 11 | 119 | 6.4 | 16.1 | 0.00 | 0.00 | 0.00 | 85 | 1010.5 |
| 20260505051153 | 11 | 173 | 6.4 | 9.7 | 0.00 | 0.00 | 0.00 | 84 | 1010.6 |
| 20260505050651 | 11 | 144 | 9.7 | 11.3 | 0.00 | 0.00 | 0.00 | 84 | 1010.5 |
| 20260505050144 | 11 | 159 | 8.0 | 12.9 | 0.00 | 0.00 | 0.00 | 84 | 1010.6 |
| 20260505041619 | 11 | 276 | 3.2 | 14.5 | 0.00 | 0.00 | 0.00 | 82 | 1010.5 |
| 20260505041116 | 11 | 158 | 3.2 | 8.0 | 0.00 | 0.00 | 0.00 | 82 | 1010.6 |
| 20260505040613 | 11 | 231 | 12.9 | 14.5 | 0.00 | 0.00 | 0.00 | 82 | 1010.6 |
| 20260505040110 | 11 | 171 | 3.2 | 9.7 | 0.00 | 0.00 | 0.00 | 81 | 1010.7 |
| 20260505035606 | 11 | 118 | 3.2 | 11.3 | 0.00 | 0.00 | 0.00 | 81 | 1010.6 |
| 20260505035103 | 11 | 121 | 6.4 | 11.3 | 0.00 | 0.00 | 0.00 | 81 | 1010.6 |
| 20260505034559 | 11 | 152 | 8.0 | 11.3 | 0.00 | 0.00 | 0.00 | 80 | 1010.6 |
| 20260505034056 | 11 | 190 | 9.7 | 24.1 | 0.00 | 0.00 | 0.00 | 80 | 1010.5 |
| 20260505033553 | 11 | 239 | 8.0 | 11.3 | 0.00 | 0.00 | 0.00 | 80 | 1010.8 |
| 20260505033052 | 11 | 233 | 3.2 | 22.5 | 0.00 | 0.00 | 0.00 | 80 | 1010.8 |
| 20260505032549 | 11 | 119 | 9.7 | 16.1 | 0.00 | 0.00 | 0.00 | 80 | 1010.5 |
| 20260505032045 | 11 | 111 | 6.4 | 11.3 | 0.00 | 0.00 | 0.00 | 79 | 1010.5 |
| 20260505031542 | 11 | 127 | 6.4 | 14.5 | 0.00 | 0.00 | 0.00 | 79 | 1010.9 |
| 20260505031039 | 11 | 141 | 12.9 | 24.1 | 0.00 | 0.00 | 0.00 | 79 | 1010.7 |
| 20260505030536 | 11 | 134 | 11.3 | 12.9 | 0.00 | 0.00 | 0.00 | 79 | 1011.0 |
| 20260505030032 | 11 | 175 | 11.3 | 17.7 | 0.00 | 0.00 | 0.00 | 79 | 1010.8 |
| 20260505025528 | 11 | 23 | 3.2 | 22.5 | 0.00 | 0.00 | 0.00 | 78 | 1010.8 |
| 20260505025027 | 11 | 173 | 4.8 | 14.5 | 0.00 | 0.00 | 0.00 | 78 | 1010.7 |
| 20260505024523 | 11 | 173 | 3.2 | 14.5 | 0.00 | 0.00 | 0.00 | 78 | 1010.8 |
| 20260505024020 | 11 | 90 | 3.2 | 11.3 | 0.00 | 0.00 | 0.00 | 78 | 1010.8 |
| 20260505023517 | 12 | 96 | 14.5 | 14.5 | 0.00 | 0.00 | 0.00 | 77 | 1010.7 |
| 20260505023015 | 12 | 208 | 4.8 | 14.5 | 0.00 | 0.00 | 0.00 | 77 | 1010.7 |
| 20260505022513 | 12 | 219 | 11.3 | 17.7 | 0.00 | 0.00 | 0.00 | 77 | 1010.6 |
| 20260505022010 | 12 | 163 | 6.4 | 20.9 | 0.00 | 0.00 | 0.00 | 77 | 1010.6 |
| 20260505021506 | 12 | 190 | 4.8 | 14.5 | 0.00 | 0.00 | 0.00 | 76 | 1010.8 |
| 20260505021002 | 12 | 122 | 11.3 | 17.7 | 0.00 | 0.00 | 0.00 | 76 | 1010.9 |
| 20260505020457 | 12 | 74 | 3.2 | 11.3 | 0.00 | 0.00 | 0.00 | 75 | 1010.7 |
| 20260505015954 | 12 | 121 | 3.2 | 11.3 | 0.00 | 0.00 | 0.00 | 75 | 1010.8 |
| 20260505015451 | 12 | 140 | 3.2 | 14.5 | 0.00 | 0.00 | 0.00 | 75 | 1010.5 |
| 20260505014948 | 12 | 120 | 9.7 | 24.1 | 0.00 | 0.00 | 0.00 | 74 | 1010.7 |
| 20260505014445 | 12 | 129 | 11.3 | 24.1 | 0.00 | 0.00 | 0.00 | 73 | 1010.7 |
| 20260505013942 | 12 | 113 | 14.5 | 17.7 | 0.00 | 0.00 | 0.00 | 73 | 1010.7 |
| 20260505013439 | 12 | 157 | 3.2 | 17.7 | 0.00 | 0.00 | 0.00 | 72 | 1010.7 |
| 20260505012937 | 12 | 125 | 9.7 | 16.1 | 0.00 | 0.00 | 0.00 | 72 | 1010.5 |
| 20260505012435 | 12 | 269 | 12.9 | 24.1 | 0.00 | 0.00 | 0.00 | 71 | 1010.5 |
| 20260505011931 | 12 | 151 | 6.4 | 14.5 | 0.00 | 0.00 | 0.00 | 71 | 1010.4 |
| 20260505011427 | 12 | 241 | 4.8 | 9.7 | 0.00 | 0.00 | 0.00 | 70 | 1010.3 |
| 20260505010924 | 12 | 138 | 8.0 | 24.1 | 0.00 | 0.00 | 0.00 | 70 | 1010.3 |
| 20260505010420 | 13 | 324 | 8.0 | 8.0 | 0.00 | 0.00 | 0.00 | 69 | 1010.2 |
| 20260505005916 | 13 | 276 | 6.4 | 17.7 | 0.00 | 0.00 | 0.00 | 69 | 1010.1 |
| 20260505005413 | 13 | 157 | 6.4 | 17.7 | 0.00 | 0.00 | 0.00 | 68 | 1009.9 |
| 20260505004911 | 13 | 150 | 8.0 | 20.9 | 0.00 | 0.00 | 0.00 | 67 | 1009.9 |
| 20260505004407 | 13 | 201 | 12.9 | 19.3 | 0.00 | 0.00 | 0.00 | 66 | 1009.8 |
| 20260505003904 | 13 | 114 | 4.8 | 25.7 | 0.00 | 0.00 | 0.00 | 65 | 1009.7 |
| 20260505003401 | 13 | 159 | 14.5 | 29.0 | 0.00 | 0.00 | 0.00 | 63 | 1009.5 |
| 20260505002857 | 13 | 136 | 8.0 | 19.3 | 0.00 | 0.00 | 0.00 | 62 | 1009.6 |
| 20260505002354 | 13 | 204 | 8.0 | 24.1 | 0.00 | 0.00 | 0.00 | 61 | 1009.3 |
| 20260505001853 | 14 | 154 | 8.0 | 20.9 | 0.00 | 0.00 | 0.00 | 61 | 1009.1 |
| 20260505001349 | 14 | 136 | 6.4 | 17.7 | 0.00 | 0.00 | 0.00 | 60 | 1009.1 |
| 20260505000847 | 14 | 187 | 8.0 | 16.1 | 0.00 | 0.00 | 0.00 | 60 | 1009.0 |
| 20260505000344 | 14 | 218 | 0.0 | 22.5 | 0.00 | 0.00 | 0.00 | 60 | 1008.8 |
| 20260504235841 | 14 | 37 | 4.8 | 17.7 | 0.00 | 0.00 | 0.00 | 59 | 1008.9 |
| 20260504235338 | 15 | 248 | 12.9 | 27.4 | 0.00 | 0.00 | 0.00 | 58 | 1008.8 |
| 20260504234834 | 15 | 128 | 9.7 | 30.6 | 0.00 | 0.00 | 0.00 | 57 | 1008.7 |
| 20260504234332 | 15 | 187 | 11.3 | 24.1 | 0.00 | 0.00 | 0.00 | 57 | 1008.8 |
| 20260504233828 | 15 | 166 | 22.5 | 38.6 | 0.00 | 0.00 | 0.00 | 56 | 1008.6 |
| 20260504233324 | 15 | 265 | 6.4 | 8.0 | 0.00 | 0.00 | 0.00 | 55 | 1008.6 |
| 20260504232821 | 15 | 141 | 16.1 | 25.7 | 0.00 | 0.00 | 0.00 | 54 | 1008.4 |
| 20260504232318 | 16 | 197 | 12.9 | 19.3 | 0.00 | 0.00 | 0.00 | 53 | 1008.5 |
| 20260504231815 | 16 | 154 | 12.9 | 30.6 | 0.00 | 0.00 | 0.00 | 52 | 1008.3 |
| 20260504231312 | 16 | 145 | 12.9 | 17.7 | 0.00 | 0.00 | 0.00 | 52 | 1008.2 |
| 20260504230808 | 16 | 156 | 12.9 | 30.6 | 0.00 | 0.00 | 0.00 | 51 | 1008.1 |
| 20260504230306 | 17 | 169 | 9.7 | 20.9 | 0.00 | 0.00 | 0.00 | 50 | 1008.0 |
| 20260504225804 | 17 | 137 | 8.0 | 8.0 | 0.00 | 0.00 | 0.00 | 50 | 1007.9 |
| 20260504225300 | 17 | 199 | 3.2 | 14.5 | 0.00 | 0.00 | 0.00 | 50 | 1007.7 |
| 20260504224757 | 17 | 182 | 11.3 | 20.9 | 0.00 | 0.00 | 0.00 | 49 | 1007.8 |
| 20260504224255 | 17 | 196 | 8.0 | 24.1 | 0.00 | 0.00 | 0.00 | 49 | 1007.7 |
| 20260504223751 | 18 | 155 | 9.7 | 12.9 | 0.00 | 0.00 | 0.00 | 48 | 1007.5 |
| 20260504223247 | 18 | 225 | 20.9 | 33.8 | 0.00 | 0.00 | 0.00 | 48 | 1007.6 |
| 20260504222744 | 18 | 148 | 27.4 | 40.2 | 0.00 | 0.00 | 0.00 | 48 | 1007.6 |
| 20260504222240 | 18 | 227 | 0.0 | 35.4 | 0.00 | 0.00 | 0.00 | 48 | 1007.4 |
| 20260504221738 | 18 | 160 | 9.7 | 29.0 | 0.00 | 0.00 | 0.00 | 47 | 1007.5 |
| 20260504221235 | 18 | 170 | 14.5 | 38.6 | 0.00 | 0.00 | 0.00 | 47 | 1007.1 |
| 20260504220731 | 18 | 160 | 17.7 | 46.7 | 0.00 | 0.00 | 0.00 | 47 | 1007.3 |
| 20260504220229 | 18 | 152 | 14.5 | 25.7 | 0.00 | 0.00 | 0.00 | 46 | 1007.3 |
| 20260504215726 | 19 | 132 | 33.8 | 45.1 | 0.00 | 0.00 | 0.00 | 45 | 1007.2 |
| 20260504215223 | 19 | 165 | 6.4 | 19.3 | 0.00 | 0.00 | 0.00 | 46 | 1007.5 |
| 20260504214718 | 18 | 126 | 24.1 | 30.6 | 0.00 | 0.00 | 0.00 | 45 | 1007.5 |
| 20260504214215 | 19 | 136 | 14.5 | 24.1 | 0.00 | 0.00 | 0.00 | 46 | 1007.3 |
| 20260504213712 | 19 | 227 | 12.9 | 27.4 | 0.00 | 0.00 | 0.00 | 45 | 1007.4 |
| 20260504213208 | 18 | 178 | 14.5 | 30.6 | 0.00 | 0.00 | 0.00 | 45 | 1007.2 |
| 20260504212705 | 19 | 156 | 6.4 | 27.4 | 0.00 | 0.00 | 0.00 | 45 | 1007.0 |
| 20260504212202 | 19 | 146 | 4.8 | 27.4 | 0.00 | 0.00 | 0.00 | 43 | 1007.2 |
| 20260504211659 | 20 | 172 | 32.2 | 38.6 | 0.00 | 0.00 | 0.00 | 43 | 1007.4 |
| 20260504211155 | 19 | 122 | 11.3 | 29.0 | 0.00 | 0.00 | 0.00 | 43 | 1007.0 |
| 20260504210653 | 19 | 161 | 14.5 | 38.6 | 0.00 | 0.00 | 0.00 | 44 | 1007.1 |
| 20260504210149 | 19 | 140 | 29.0 | 33.8 | 0.00 | 0.00 | 0.00 | 43 | 1007.2 |
| 20260504205647 | 20 | 133 | 9.7 | 24.1 | 0.00 | 0.00 | 0.00 | 42 | 1007.0 |
| 20260504205144 | 19 | 185 | 30.6 | 40.2 | 0.00 | 0.00 | 0.00 | 42 | 1007.2 |
| 20260504204643 | 20 | 166 | 17.7 | 40.2 | 0.00 | 0.00 | 0.00 | 42 | 1007.1 |
| 20260504204141 | 20 | 150 | 14.5 | 25.7 | 0.00 | 0.00 | 0.00 | 42 | 1007.2 |
| 20260504203640 | 20 | 149 | 6.4 | 24.1 | 0.00 | 0.00 | 0.00 | 42 | 1007.1 |
| 20260504203137 | 20 | 199 | 19.3 | 38.6 | 0.00 | 0.00 | 0.00 | 41 | 1006.9 |
| 20260504202637 | 20 | 230 | 24.1 | 37.0 | 0.00 | 0.00 | 0.00 | 42 | 1007.1 |
| 20260504202134 | 20 | 124 | 19.3 | 32.2 | 0.00 | 0.00 | 0.00 | 42 | 1007.0 |
| 20260504201631 | 20 | 155 | 16.1 | 37.0 | 0.00 | 0.00 | 0.00 | 40 | 1007.1 |
| 20260504201129 | 20 | 164 | 6.4 | 14.5 | 0.00 | 0.00 | 0.00 | 43 | 1007.0 |
| 20260504200626 | 20 | 201 | 11.3 | 33.8 | 0.00 | 0.00 | 0.00 | 40 | 1007.0 |
| 20260504200122 | 21 | 127 | 24.1 | 24.1 | 0.00 | 0.00 | 0.00 | 38 | 1007.2 |
| 20260504195618 | 21 | 158 | 12.9 | 22.5 | 0.00 | 0.00 | 0.00 | 37 | 1007.0 |
| 20260504195114 | 21 | 135 | 12.9 | 30.6 | 0.00 | 0.00 | 0.00 | 35 | 1006.9 |
| 20260504194611 | 21 | 286 | 8.0 | 19.3 | 0.00 | 0.00 | 0.00 | 35 | 1006.9 |
| 20260504194107 | 21 | 233 | 19.3 | 33.8 | 0.00 | 0.00 | 0.00 | 34 | 1007.0 |
| 20260504193603 | 21 | 181 | 12.9 | 27.4 | 0.00 | 0.00 | 0.00 | 35 | 1007.1 |
| 20260504193102 | 21 | 172 | 8.0 | 41.8 | 0.00 | 0.00 | 0.00 | 33 | 1007.0 |
| 20260504192600 | 22 | 203 | 20.9 | 20.9 | 0.00 | 0.00 | 0.00 | 33 | 1006.9 |
| 20260504192058 | 21 | 234 | 17.7 | 24.1 | 0.00 | 0.00 | 0.00 | 34 | 1007.2 |
| 20260504191556 | 21 | 311 | 8.0 | 38.6 | 0.00 | 0.00 | 0.00 | 33 | 1007.0 |
| 20260504191051 | 22 | 148 | 11.3 | 24.1 | 0.00 | 0.00 | 0.00 | 36 | 1006.9 |
| 20260504190548 | 22 | 87 | 8.0 | 24.1 | 0.00 | 0.00 | 0.00 | 36 | 1006.9 |
| 20260504190044 | 21 | 330 | 3.2 | 27.4 | 0.00 | 0.00 | 0.00 | 34 | 1007.1 |
| 20260504185541 | 21 | 72 | 4.8 | 17.7 | 0.00 | 0.00 | 0.00 | 33 | 1007.1 |
| 20260504185038 | 21 | 213 | 20.9 | 33.8 | 0.00 | 0.00 | 0.00 | 34 | 1007.1 |
| 20260504184533 | 21 | 225 | 14.5 | 37.0 | 0.00 | 0.00 | 0.00 | 33 | 1007.1 |
| 20260504184029 | 21 | 193 | 8.0 | 30.6 | 0.00 | 0.00 | 0.00 | 33 | 1007.2 |
| 20260504183526 | 21 | 111 | 6.4 | 20.9 | 0.00 | 0.00 | 0.00 | 36 | 1007.2 |
| 20260504183024 | 21 | 210 | 14.5 | 32.2 | 0.00 | 0.00 | 0.00 | 33 | 1007.3 |
| 20260504182521 | 21 | 109 | 17.7 | 19.3 | 0.00 | 0.00 | 0.00 | 36 | 1007.2 |
| 20260504182018 | 21 | 210 | 17.7 | 27.4 | 0.00 | 0.00 | 0.00 | 34 | 1007.4 |
| 20260504181515 | 21 | 340 | 3.2 | 24.1 | 0.00 | 0.00 | 0.00 | 36 | 1007.3 |
| 20260504181014 | 21 | 235 | 17.7 | 29.0 | 0.00 | 0.00 | 0.00 | 35 | 1007.5 |
| 20260504180512 | 21 | 188 | 16.1 | 32.2 | 0.00 | 0.00 | 0.00 | 35 | 1007.5 |
| 20260504180010 | 21 | 223 | 6.4 | 20.9 | 0.00 | 0.00 | 0.00 | 35 | 1007.4 |
| 20260504175507 | 20 | 168 | 9.7 | 32.2 | 0.00 | 0.00 | 0.00 | 34 | 1007.5 |
| 20260504175004 | 20 | 141 | 9.7 | 25.7 | 0.00 | 0.00 | 0.00 | 35 | 1007.5 |
| 20260504174502 | 20 | 176 | 9.7 | 29.0 | 0.00 | 0.00 | 0.00 | 35 | 1007.4 |
| 20260504173959 | 20 | 204 | 19.3 | 29.0 | 0.00 | 0.00 | 0.00 | 34 | 1007.2 |
| 20260504173455 | 20 | 27 | 8.0 | 41.8 | 0.00 | 0.00 | 0.00 | 34 | 1007.5 |
| 20260504172953 | 21 | 204 | 14.5 | 30.6 | 0.00 | 0.00 | 0.00 | 33 | 1007.3 |
| 20260504172448 | 20 | 293 | 11.3 | 33.8 | 0.00 | 0.00 | 0.00 | 35 | 1007.6 |
| 20260504171945 | 20 | 293 | 11.3 | 25.7 | 0.00 | 0.00 | 0.00 | 34 | 1007.4 |
| 20260504171443 | 21 | 145 | 9.7 | 27.4 | 0.00 | 0.00 | 0.00 | 36 | 1007.5 |
| 20260504170939 | 20 | 10 | 6.4 | 25.7 | 0.00 | 0.00 | 0.00 | 35 | 1007.6 |
| 20260504170436 | 20 | 243 | 19.3 | 33.8 | 0.00 | 0.00 | 0.00 | 34 | 1007.4 |
| 20260504160355 | 20 | 288 | 8.0 | 24.1 | 0.00 | 0.00 | 0.00 | 37 | 1008.5 |
| 20260504150820 | 18 | 184 | 0.0 | 30.6 | 0.00 | 0.00 | 0.00 | 39 | 1008.8 |
| 20260504150316 | 18 | 299 | 9.7 | 27.4 | 0.00 | 0.00 | 0.00 | 39 | 1008.9 |
| 20260504141246 | 17 | 351 | 9.7 | 25.7 | 0.00 | 0.00 | 0.00 | 42 | 1009.4 |
| 20260504140742 | 17 | 184 | 4.8 | 25.7 | 0.00 | 0.00 | 0.00 | 41 | 1009.5 |
| 20260504140238 | 17 | 282 | 6.4 | 24.1 | 0.00 | 0.00 | 0.00 | 42 | 1009.7 |
| 20260504130707 | 15 | 155 | 8.0 | 16.1 | 0.00 | 0.00 | 0.00 | 46 | 1010.1 |
| 20260504130203 | 14 | 305 | 9.7 | 24.1 | 0.00 | 0.00 | 0.00 | 47 | 1010.2 |
| 20260504120127 | 11 | 109 | 6.4 | 17.7 | 0.00 | 0.00 | 0.00 | 56 | 1010.3 |
| 20260504110554 | 8 | 94 | 0.0 | 9.7 | 0.00 | 0.00 | 0.00 | 62 | 1010.6 |
| 20260504100516 | 7 | 56 | 0.0 | 3.2 | 0.00 | 0.00 | 0.00 | 63 | 1010.5 |